• Join FlightAware (Why Join?)
  • Login
  • US Flag GB Flag 
18:23 EDT


 

Airport Tracker/Info


-or-


 

Live Flight TrackerFlight Track Log ✈ AWE3418 ✈ 16-Apr-2013 ✈ KPHL - KMHT

Flight Track Log - Related Links

Times and Time Zones

All times are in EDT time to prevent confusion due to time zone crossing. See the AWE3418 flight status page for this flight to view local times or setup timezone preferences in your user account.

Time Position Orientation Groundspeed Altitude Reporting Facility
EDT Latitude Longitude Course Direction KTS MPH feet Rate Location/Type
19:29 39.8667 -75.2667 37° Northeast 155 178 900  Level Philadelphia TRACON
19:30 39.8456 -75.2892 219° Southwest 145 167 1,800 1,980 Climbing FAA TRACON SMA TRACON (SMA)
19:30 39.8303 -75.3056 219° Southwest 183 211 2,700 2,700 Climbing FAA TRACON SMA TRACON (SMA)
19:31 39.8161 -75.3206 219° Southwest 200 230 3,600 2,580 Climbing FAA TRACON SMA TRACON (SMA)
19:31 39.8008 -75.3342 214° Southwest 221 254 4,400 2,220 Climbing FAA TRACON SMA TRACON (SMA)
19:31 39.7817 -75.3342 180° South 241 277 5,100 2,520 Climbing FAA TRACON SMA TRACON (SMA)
19:32 39.8167 -74.9168 90° East  Level FlightAware Approximate
19:32 39.7606 -75.3108 140° Southeast 269 310 6,100  Level FAA TRACON SMA TRACON (SMA)
19:32 39.7539 -75.2775 105° East 308 354 6,700 1,200 Climbing FAA TRACON SMA TRACON (SMA)
19:32 39.7567 -75.2447 84° East 342 394 6,900 2,400 Climbing FAA TRACON SMA TRACON (SMA)
19:33 39.8049 -74.8079 105° East  Level FlightAware Approximate
19:33 39.7667 -75.2006 74° East 341 392 8,300  Level FAA TRACON SMA TRACON (SMA)
19:33 39.7711 -75.1617 82° East 324 373 9,800 3,900 Climbing FAA TRACON SMA TRACON (SMA)
19:33 39.7753 -75.1183 83° East 330 380 11,000 2,820 Climbing FAA TRACON SMA TRACON (SMA)
19:34 39.7835 -74.7006 105° East  Level FlightAware Approximate
19:34 39.7767 -75.0806 87° East 339 390 11,700  Level FAA TRACON SMA TRACON (SMA)
19:34 39.7775 -75.0483 88° East 344 396 12,000 420 Climbing FAA TRACON SMA TRACON (SMA)
19:34 39.7808 -74.9911 86° East 360 414 12,000  Level FAA TRACON SMA TRACON (SMA)
19:35 39.8506 -74.6329 37° Northeast  Level FlightAware Approximate
19:35 39.7828 -74.9511 86° East 360 414 12,000  Level FAA TRACON SMA TRACON (SMA)
19:35 39.7844 -74.9125 87° East 359 413 12,000 240 Level FAA TRACON SMA TRACON (SMA)
19:35 39.7867 -74.8622 87° East 358 412 12,200 1,800 Climbing FAA TRACON SMA TRACON (SMA)
19:36 39.7886 -74.8217 86° East 362 417 13,200 2,880 Climbing FAA TRACON SMA TRACON (SMA)
19:36 39.7903 -74.7833 87° East 363 418 14,100 3,120 Climbing FAA TRACON SMA TRACON (SMA)
19:36 39.7978 -74.7303 80° East 375 432 15,300 3,180 Climbing FAA TRACON SMA TRACON (SMA)
19:37 39.8153 -74.6972 55° Northeast 360 414 16,300 2,700 Climbing FAA TRACON SMA TRACON (SMA)
19:37 39.8389 -74.6717 40° Northeast 358 412 17,100 2,400 Climbing FAA TRACON SMA TRACON (SMA)
19:37 39.8681 -74.6422 38° Northeast 358 412 17,900 1,620 Climbing FAA TRACON SMA TRACON (SMA)
19:38 39.8747 -74.6375 29° Northeast 359 413 18,200 1,260 Climbing FAA TRACON SMA TRACON (SMA)
19:40 39.9962 -74.5039 37° Northeast  Level FlightAware Approximate
19:44 40.5592 -74.1911 North 399 459 27,000  Level Boston Center
19:45 40.6697 -74.1722 North 416 479 27,000  Level Boston Center
19:46 40.7722 -74.1583 North 411 473 27,000  Level Boston Center
19:47 40.6215 -74.2667 North  Level FlightAware Approximate
19:47 40.8828 -74.1394 North 406 467 27,000  Level Boston Center
19:48 40.7145 -74.2464 11° North  Level FlightAware Approximate
19:48 40.9958 -74.1203 North 406 467 27,000  Level Boston Center
19:49 40.8086 -74.2290 21° North  Level FlightAware Approximate
19:49 41.1106 -74.0986 North 406 467 27,000  Level Boston Center
19:50 40.9017 -74.2030 North  Level FlightAware Approximate
19:50 41.2194 -74.0792 North 406 467 27,000  Level Boston Center
19:51 41.3406 -74.0575 North 406 467 27,000  Level Boston Center
19:52 41.4469 -74.0381 North 406 467 27,000  Level Boston Center
19:53 41.5578 -74.0214 North 406 467 27,000  Level Boston Center
19:54 41.6686 -73.9992 North 406 467 27,000  Level Boston Center
19:55 41.7814 -73.9797 North 406 467 27,000  Level Boston Center
19:56 41.8822 -73.9125 26° Northeast 400 460 27,000  Level Boston Center
19:57 41.9653 -73.7692 52° Northeast 421 484 27,000 -120 Level Boston Center
19:58 42.0461 -73.6283 52° Northeast 453 521 26,800 -960 Descending Boston Center
19:59 42.1308 -73.4786 53° Northeast 477 549 25,100 -1,680 Descending Boston Center
20:00 42.2178 -73.3286 52° Northeast 477 549 23,500 -2,340 Descending Boston Center
20:01 42.2811 -73.2175 52° Northeast 455 524 20,500 -2,340 Descending Boston Center
20:02 42.3506 -73.0861 54° Northeast 437 503 19,000 -780 Descending Boston Center
20:03 42.4328 -72.9408 52° Northeast 432 497 19,000  Level Boston Center
20:04 42.4936 -72.7978 60° Northeast 432 497 19,000  Level Boston Center
20:05 42.5481 -72.6486 64° Northeast 432 497 19,000 -600 Level Boston Center
20:06 42.6067 -72.5050 61° Northeast 432 497 17,900 -1,620 Descending Boston Center
20:07 42.6589 -72.3611 64° Northeast 422 486 15,700 -2,220 Descending Boston Center
20:08 42.7086 -72.2253 63° Northeast 410 472 13,600 -2,160 Descending Boston Center
20:09 42.7564 -72.1008 62° Northeast 399 459 11,600 -1,800 Descending Boston Center
20:10 42.7994 -71.9619 67° East 383 441 10,100 -1,680 Descending Boston Center
20:11 42.8219 -71.8486 75° East 346 398 8,200 -1,800 Descending Boston Center
20:12 42.8461 -71.7181 76° East 328 377 6,500 -1,680 Descending Boston Center
20:13 42.8936 -71.6353 52° Northeast 303 349 5,000 -780 Descending Boston Center
20:14 42.9514 -71.5692 40° Northeast 260 299 5,000 -420 Level Boston Center
20:15 42.9933 -71.5914 339° North 178 205 4,200 -1,020 Descending Boston Center
20:16 43.0433 -71.6133 342° North 178 205 3,000 -600 Descending Boston Center
20:17 43.0833 -71.6414 333° Northwest 178 205 3,000  Level Boston Center
20:18 43.1244 -71.5811 47° Northeast 154 177 3,000  Level Boston Center
20:19 43.0992 -71.5358 127° Southeast 141 162 3,000 -120 Level Boston Center
20:20 43.0572 -71.5108 156° South 149 171 2,800 -540 Descending Boston Center
20:21 43.0194 -71.4858 154° Southeast 156 180 2,000 -840 Descending Boston Center
20:22 42.9819 -71.4639 157° South 144 166 1,100 -780 Descending Boston Center
20:23 42.9525 -71.4472 157° South 133 153 500 -660 Descending Boston Center